EST,Max TemperatureF,Mean TemperatureF,Min TemperatureF,Max Dew PointF,MeanDew PointF,Min DewpointF,Max Humidity, Mean Humidity, Min Humidity, Max Sea Level PressureIn, Mean Sea Level PressureIn, Min Sea Level PressureIn, Max VisibilityMiles, Mean VisibilityMiles, Min VisibilityMiles, Max Wind SpeedMPH, Mean Wind SpeedMPH, Max Gust SpeedMPH,PrecipitationIn, CloudCover, Events, WindDirDegrees
2013-12-1,70,67,63,67,64,62,100,95,90,30.16,30.09,29.98,10,6,2,14,5,17,0.60,8,Rain,337
2013-12-2,72,65,57,64,61,56,100,81,61,29.97,29.90,29.83,10,6,1,14,6,18,T,4,,314
2013-12-3,77,67,57,62,59,56,100,77,53,30.01,29.96,29.90,10,9,5,12,5,15,0.00,4,,169
2013-12-4,83,72,61,68,64,60,100,74,47,30.11,30.05,30.00,10,10,10,12,5,15,0.00,2,,172
2013-12-5,81,71,61,69,65,60,100,81,62,30.19,30.14,30.11,10,10,2,13,6,17,0.00,2,,124
2013-12-6,80,74,67,72,68,65,93,76,58,30.20,30.16,30.12,10,9,2,16,6,21,0.16,5,Rain,164
2013-12-7,81,72,62,70,67,62,100,81,62,30.25,30.20,30.17,10,10,7,9,4,15,0.00,2,,93
2013-12-8,82,76,69,70,67,65,87,75,62,30.24,30.19,30.14,10,10,10,17,7,21,0.01,2,Rain,130
2013-12-9,83,74,65,70,66,63,100,78,55,30.21,30.16,30.12,10,10,9,17,7,23,0.00,3,,158
2013-12-10,85,75,64,70,64,60,93,69,44,30.19,30.14,30.08,10,10,10,16,7,20,0.00,3,,225
2013-12-11,82,72,62,70,66,61,93,80,67,30.25,30.20,30.17,10,10,9,16,7,21,0.00,3,,10
2013-12-12,70,61,52,65,56,46,100,74,48,30.29,30.24,30.19,10,10,7,24,13,30,0.00,4,,344
2013-12-13,75,64,52,59,53,49,83,63,43,30.26,30.20,30.14,10,10,10,17,12,22,0.00,4,,83
2013-12-14,80,76,71,72,68,61,84,75,66,30.13,30.05,29.98,10,10,10,22,12,29,T,4,Rain,143
2013-12-15,75,69,63,72,65,57,93,81,68,30.11,29.99,29.92,10,9,1,20,9,23,0.67,6,Rain-Thunderstorm,278
2013-12-16,67,58,48,57,51,45,93,76,58,30.22,30.16,30.10,10,10,10,16,10,,0.00,3,,324
2013-12-17,73,61,48,57,53,46,100,75,49,30.23,30.19,30.15,10,10,7,16,8,18,0.00,0,,334
2013-12-18,69,60,50,51,46,39,100,69,37,30.28,30.24,30.19,10,10,10,17,9,21,0.00,0,,345
2013-12-19,75,61,46,58,52,44,93,71,49,30.28,30.24,30.20,10,10,10,12,5,15,0.00,1,,18
2013-12-20,79,66,53,66,59,51,93,71,48,30.23,30.18,30.14,10,10,10,17,6,24,0.00,1,,123
2013-12-21,81,75,69,72,70,66,97,83,69,30.17,30.13,30.08,10,10,7,20,8,25,0.00,1,,136
2013-12-22,84,77,69,72,70,67,100,79,58,30.17,30.13,30.10,10,10,8,16,8,21,0.00,2,,152
2013-12-23,86,77,67,72,69,65,100,76,51,30.19,30.14,30.10,10,9,5,18,9,22,0.00,2,Fog,184
2013-12-24,73,67,60,70,59,43,100,74,48,30.23,30.18,30.11,10,9,2,24,13,32,0.02,5,Rain,321
2013-12-25,75,69,62,56,54,52,72,59,46,30.24,30.19,30.16,10,10,10,18,12,23,0.00,3,,65
2013-12-26,78,67,55,64,60,54,97,77,56,30.21,30.17,30.11,10,9,2,17,9,23,0.00,3,,358
2013-12-27,77,72,66,67,65,63,93,84,74,30.25,30.20,30.16,10,10,8,16,10,21,T,5,,2
2013-12-28,77,73,68,69,68,66,97,86,74,30.22,30.15,30.05,10,9,1,17,10,23,0.05,5,Rain,88
2013-12-29,77,73,68,74,71,68,100,94,87,30.04,29.96,29.89,10,8,1,22,10,31,0.64,6,Rain,211
2013-12-30,70,65,59,68,60,51,100,86,72,30.20,30.09,30.00,10,10,10,14,7,16,0.00,6,,332
2013-12-31,70,65,60,59,55,53,84,71,57,30.29,30.24,30.17,10,10,10,18,11,23,0.00,4,,356